#timestamp,LO_Frequency,Hit,StdDev 
1605074415.2,286047004.6,N
1605074435.0,286047004.9,N
1605074435.9,286047004.9,N
1605074455.7,286047004.1,N
1605074475.6,286047003.4,N
1605074495.4,286047003.9,N
1605074515.3,286046999.9,N
1605074535.1,286046999.6,N
1605074536.0,286046999.6,N
1605074555.8,286046997.8,N
1605074575.7,286046995.1,N
1605074595.5,286046994.4,N
1605074615.4,286046993.9,N
1605074635.2,286046990.6,N
1605074655.0,286046988.5,N
1605074655.9,286046988.5,N
1605074675.8,286046989.1,N
1605074695.6,286046988.1,N
1605074715.4,286046987.7,N
1605074735.3,286046986.0,N
1605074755.1,286046985.6,N
1605074775.9,286046985.9,N
1605074795.7,286046986.0,N
1605074815.5,286046987.6,N
1605074835.4,286046986.2,N
1605074855.2,286046986.0,N
1605074875.0,286046984.0,N
1605074875.9,286046984.0,N
1605074895.8,286046984.8,N
1605074915.6,286046986.5,N
1605074935.5,286046986.5,N
1605074955.3,286046986.6,N
1605074975.1,286046986.4,N
1605074995.9,286046983.7,N
1605075015.7,286046985.3,N
1605075035.6,286046984.5,N
1605075055.4,286046983.4,Y
1605075075.2,286046994.5,P
1605075095.1,286046993.8,N
1605075096.0,286046993.8,N
1605075115.8,286046995.8,N
1605075135.7,286046993.3,N
1605075155.5,286046991.8,Y
1605075175.3,286047000.8,P
1605075195.2,286046999.0,N
1605075215.0,286046998.7,N
1605075215.9,286046998.7,N
1605075235.7,286046996.5,N
1605075255.6,286046997.2,N
1605075275.4,286046997.8,N
1605075295.3,286046997.2,N
1605075315.1,286046996.5,N
1605075316.0,286046996.5,N
1605075335.8,286046998.8,N
1605075355.7,286046998.3,N
1605075375.5,286047000.6,N
1605075395.3,286046998.1,N
1605075415.2,286046996.9,N
1605075435.0,286046997.9,N
1605075435.9,286046997.9,N
1605075455.8,286046997.9,N
1605075475.6,286046993.3,Y
1605075495.4,286046992.2,P
1605075515.3,286046990.9,P
1605075535.1,286046991.4,N
1605075555.9,286046987.1,Y
1605075575.7,286046993.3,P
1605075595.5,286047001.2,P
1605075615.4,286046998.6,N
1605075635.2,286047002.3,N
1605075655.0,286047001.7,N
1605075656.0,286047001.7,N
1605075675.8,286047000.7,N
1605075695.6,286046998.4,N
1605075715.5,286046998.3,N
1605075735.3,286046997.3,N
1605075755.1,286046999.2,N
1605075775.9,286046998.5,N
1605075795.7,286046998.3,N
1605075815.6,286046996.6,N
1605075835.4,286046995.1,N
1605075855.2,286046993.9,N
1605075875.1,286046992.2,N
1605075876.0,286046992.2,N
1605075895.8,286046994.4,N
1605075915.6,286046992.6,N
1605075935.5,286046990.2,N
1605075955.3,286046990.5,N
1605075975.2,286046990.6,N
1605075995.9,286046991.5,N
1605076015.7,286046989.4,N
1605076035.6,286046989.3,N
1605076055.4,286046987.0,Y
1605076075.3,286046990.1,P
1605076095.1,286046990.3,P
1605076096.0,286046990.3,P
1605076115.8,286046991.2,Y
1605076135.7,286046996.5,P
1605076155.5,286047001.2,N
1605076175.3,286046998.4,N
1605076195.2,286047000.6,N
1605076215.0,286047000.1,N
1605076215.9,286047000.1,N
1605076235.8,286047003.8,N
1605076255.6,286047004.8,N
1605076275.4,286047007.5,N
1605076295.3,286047008.5,N
1605076315.1,286047009.2,N
1605076335.8,286047007.5,N
1605076355.7,286047005.7,N
1605076375.5,286047002.9,N
1605076395.4,286047001.4,N
1605076415.2,286047004.1,N
1605076435.0,286047002.5,N
1605076435.9,286047002.5,N
1605076455.8,286047000.9,N
1605076475.6,286046998.4,N
1605076525.5,286047002.5,E
1605076535.4,286047000.0,N
1605076555.2,286047002.6,P
1605076575.1,286047000.3,N
1605076576.0,286047000.3,N
1605076595.8,286046998.5,N
1605076615.7,286047001.1,N
1605076635.5,286046997.1,N
1605076655.3,286046996.7,N
1605076675.2,286046995.4,N
1605076695.0,286046995.1,N
1605076695.9,286046995.1,N
1605076715.8,286046996.4,N
1605076735.6,286046996.4,N
1605076755.4,286046997.7,N
1605076775.3,286046996.7,N
1605076795.1,286046997.2,N
1605076815.8,286046999.3,N
1605076835.7,286046997.0,N
1605076855.5,286046997.8,N
1605076875.4,286046995.8,N
1605076895.2,286046997.4,N
1605076915.0,286046998.4,N
1605076915.9,286046998.4,N
1605076935.8,286046998.2,N
1605076955.6,286046999.1,N
1605076975.5,286046996.5,N
1605076995.3,286047001.2,N
1605077015.1,286046998.3,N
1605077035.9,286046996.7,N
1605077055.7,286046996.0,N
1605077075.5,286046994.9,N
1605077095.4,286046997.3,N
1605077115.2,286046999.2,N
1605077135.1,286046997.7,N
1605077136.0,286046997.7,N
1605077155.8,286046996.0,N
1605077175.6,286046995.4,Y
1605077195.5,286046999.9,P
1605077215.3,286046998.9,N
1605077235.2,286046998.6,N
1605077255.0,286047000.6,N
1605077255.9,286047000.6,N
1605077305.8,286046997.0,E
1605077315.7,286046998.3,N
1605077335.5,286047000.4,P
1605077355.4,286046998.5,N
1605077375.2,286046999.1,N
1605077395.1,286046998.9,N
1605077396.0,286046998.9,N
